Location: MAS Eagle Lake Observatory
(44.8103°N, 93.9397°W)
Time: 18:35:06
(UTC-06:00)

N. Korean satellite - Visible Passes

Search period start: 13 December 2017 00:00
Search period end: 23 December 2017 00:00
Orbit: 461 x 513 km, 97.2° (Epoch: 13 December)

Date Brightness Start Highest point End Pass type
(mag) Time Alt. Az. Time Alt. Az. Time Alt. Az.
13 Dec 8.0 06:44:29 10° NNE 06:48:05 44° E 06:51:36 10° S visible
13 Dec 7.7 17:22:46 10° ESE 17:25:47 24° ENE 17:28:51 10° NNE visible
13 Dec 8.9 18:56:05 10° SSW 18:59:12 25° W 19:02:23 10° NW visible
14 Dec 9.3 06:21:22 10° NE 06:24:24 23° E 06:27:24 10° SSE visible
14 Dec 7.6 18:31:57 10° S 18:35:33 48° W 18:39:12 10° NNW visible
15 Dec 10.0 05:58:55 10° ENE 06:00:38 13° E 06:02:22 10° ESE visible
15 Dec 6.5 18:08:14 10° SSE 18:11:58 85° ENE 18:15:44 10° N visible
16 Dec 6.7 07:07:11 10° NNE 07:10:55 88° ESE 07:14:33 10° SSW visible
16 Dec 7.0 17:44:55 10° SE 17:48:27 43° ENE 17:52:02 10° N visible
16 Dec 9.9 19:20:07 10° SW 19:22:11 14° W 19:24:16 10° WNW visible
17 Dec 8.0 06:43:45 10° NNE 06:47:19 43° E 06:50:47 10° S visible
17 Dec 7.8 17:21:59 10° ESE 17:25:01 24° ENE 17:28:05 10° NNE visible
17 Dec 8.9 18:55:17 10° SSW 18:58:26 26° W 19:01:39 10° NW visible
18 Dec 9.3 06:20:38 10° NE 06:23:37 23° E 06:26:33 10° SSE visible
18 Dec 7.6 18:31:09 10° S 18:34:46 49° W 18:38:27 10° NNW visible
19 Dec 10.0 05:58:13 10° ENE 05:59:51 12° E 06:01:27 10° ESE visible
19 Dec 6.6 18:07:27 10° SSE 18:11:10 84° ENE 18:14:58 10° N visible
20 Dec 6.6 07:06:24 10° NNE 07:10:07 87° E 07:13:43 10° SSW visible
20 Dec 7.0 17:44:07 10° SE 17:47:40 42° ENE 17:51:15 10° N visible
20 Dec 9.9 19:19:15 10° SW 19:21:23 14° W 19:23:32 10° NW visible
21 Dec 8.0 06:42:58 10° NNE 06:46:29 42° E 06:49:55 10° S visible
21 Dec 7.8 17:21:12 10° ESE 17:24:14 24° ENE 17:27:16 10° NNE visible
21 Dec 8.9 18:54:26 10° SSW 18:57:38 26° W 19:00:51 10° NW visible
22 Dec 9.3 06:19:51 10° NE 06:22:47 22° E 06:25:39 10° SSE visible
22 Dec 7.6 18:30:18 10° S 18:33:57 50° W 18:37:38 10° NNW visible
